Temp
7 7 7 7 7 7 7 7 7 7 7 7 7 7 7 7 7 7 7 7 7 8 8 8 8 8 8 8 8 8 11 13 13 11 13 19 20 20 20 20 20 19 19 20 20 20 20 20 20 19 20 20 19 20 20 20 20 21 21 21 21 21 21 22 22 23 23 24 25 24 22 23 24 23 22 23 23 23 22 21 21 21 21 22 22 21 21 20
7 7 7 7 7 7 7 7 7 7 7 7 7 7 7 7 7 7 7 8 8 8 8 8 8 8 8 8 8 9 11 11 11 11 16 21 20 20 20 19 19 19 19 20 20 20 20 20 19 19 20 21 19 20 21 20 21 21 20 21 22 21 22 22 22 22 23 24 24 24 22 22 23 23 22 23 22 22 22 21 21 21 20 21 21 21 20 19
7 7 7 7 7 7 7 7 7 7 7 7 7 7 7 7 7 7 8 8 8 8 8 8 8 8 8 8 8 9 10 10 13 17 19 21 20 20 19 19 19 19 19 20 20 20 20 20 19 19 21 21 19 20 21 20 20 21 20 21 22 22 22 21 21 22 23 23 23 23 22 22 23 22 23 23 22 22 23 22 21 21 20 20 20 20 20 19
7 7 7 7 7 7 7 7 7 7 7 7 7 7 7 7 7 7 8 8 8 8 8 8 8 8 8 8 9 10 9 13 19 20 20 20 20 20 19 19 19 19 20 20 20 20 20 20 19 20 21 21 19 19 21 21 20 21 21 22 22 21 21 23 22 22 22 22 22 22 22 23 23 22 23 23 22 23 23 23 23 22 20 20 20 20 20 19
7 7 7 7 7 7 7 7 7 7 8 7 7 7 7 7 8 7 7 7 8 8 8 8 8 8 8 9 10 10 11 17 21 20 20 20 21 20 19 19 19 19 20 20 20 19 20 19 20 20 20 21 20 21 21 20 20 21 21 22 22 20 22 24 23 22 22 21 21 22 23 24 23 22 23 23 24 24 23 23 23 22 21 20 20 20 20 19
7 7 7 7 7 8 8 8 8 8 8 8 8 7 7 7 8 7 7 7 8 8 8 8 8 8 9 10 12 11 14 20 20 20 20 20 21 20 19 19 19 19 20 20 20 19 20 19 20 21 20 20 20 21 21 20 20 22 22 21 22 21 21 23 23 23 22 22 23 23 23 23 23 23 23 23 24 23 22 22 22 21 21 21 20 20 19 19
7 7 7 7 7 8 8 8 8 8 8 8 8 8 8 8 8 7 7 7 7 7 7 8 9 9 10 11 12 12 15 19 20 20 20 20 21 20 20 20 19 20 20 20 19 19 20 20 21 20 20 21 20 20 21 20 20 21 22 22 22 21 21 23 23 22 21 22 23 22 21 23 24 23 22 23 23 21 21 22 22 21 21 20 20 19 19 18
7 7 7 7 7 7 7 8 8 8 8 8 8 8 8 8 8 7 7 7 7 8 8 9 10 11 11 11 13 15 17 19 20 20 20 20 20 20 20 19 19 20 20 20 19 19 19 20 21 19 20 21 19 20 20 20 20 20 22 22 22 22 22 23 22 21 20 21 21 21 22 23 23 22 21 23 23 21 20 21 21 20 20 19 19 19 18 18
7 7 7 7 7 7 7 7 7 8 8 8 8 8 8 8 8 7 7 8 8 9 9 10 11 11 11 10 13 18 19 19 20 19 20 20 20 20 20 20 19 20 20 20 19 19 19 20 20 20 21 20 19 20 20 21 21 21 22 22 22 23 23 22 21 21 21 21 21 22 23 22 21 20 22 23 21 20 20 21 20 20 19 19 19 18 18 17
7 7 7 7 7 7 8 9 9 9 8 8 8 8 8 8 8 8 8 8 9 10 11 11 12 12 12 11 15 19 20 19 20 20 20 20 20 20 20 20 19 20 20 19 18 19 19 20 20 20 21 20 19 20 20 21 22 21 22 22 22 22 21 20 20 21 21 20 21 23 24 22 21 22 24 22 19 20 20 20 20 20 20 19 19 18 18 18
7 7 7 7 8 9 10 11 11 10 10 9 9 8 8 8 8 8 9 9 11 12 12 12 12 12 11 12 17 20 19 19 20 20 20 20 20 20 20 20 20 20 20 18 18 19 19 20 19 20 21 20 20 20 20 21 21 21 21 22 22 21 20 20 21 21 21 21 21 23 24 23 23 23 24 21 19 20 21 20 20 20 20 19 19 18 19 19
6 7 7 9 11 11 12 12 12 11 11 11 11 10 9 9 9 9 10 11 12 12 13 12 12 11 10 13 18 19 19 19 20 20 20 20 20 20 20 20 20 20 20 19 19 19 19 19 20 21 20 20 20 20 21 20 20 20 21 22 23 23 22 21 21 21 22 22 20 22 24 24 24 23 22 19 19 20 20 20 20 20 20 19 19 19 19 19
7 8 10 12 13 13 12 13 12 12 12 12 12 11 11 11 10 10 11 11 12 12 12 11 11 10 11 17 19 19 20 20 20 20 20 20 20 20 20 20 20 20 21 20 20 20 20 20 20 20 20 20 21 21 21 20 20 21 20 21 22 23 23 22 21 21 23 22 21 23 23 23 25 23 20 19 19 20 20 20 20 19 19 19 19 19 18 18
8 11 12 13 14 14 13 14 13 13 13 13 13 13 13 12 12 12 12 12 12 12 11 11 11 10 13 19 20 19 20 20 20 20 20 20 20 20 20 20 20 19 20 19 19 20 20 19 20 20 19 20 21 21 21 20 20 21 21 20 20 21 23 22 20 21 24 22 22 24 22 23 25 22 20 19 19 21 20 20 20 19 19 19 19 19 19 18
11 13 13 14 14 14 14 14 14 14 14 14 14 14 14 13 13 13 13 13 13 13 12 11 11 11 15 20 20 19 20 20 20 20 20 20 20 20 20 20 19 19 19 19 19 19 19 19 20 20 20 20 20 21 21 22 20 20 21 21 20 20 22 23 20 20 23 22 23 24 22 23 24 21 20 18 19 21 21 20 20 19 19 19 19 19 19 19
12 13 13 14 14 15 15 15 15 14 14 14 14 14 14 14 14 14 14 14 14 13 12 11 10 11 17 21 20 20 20 20 21 21 21 20 20 21 20 20 20 19 18 18 18 18 19 19 19 18 19 20 20 21 21 21 21 20 20 21 20 21 22 22 22 20 20 22 23 23 23 24 23 21 20 18 19 20 20 20 19 19 19 19 19 19 19 19
12 13 14 14 15 15 15 16 16 15 15 14 14 14 14 14 14 14 14 14 14 13 11 11 10 11 18 21 20 20 20 20 21 20 20 20 20 21 20 20 20 19 18 18 18 18 19 19 18 18 19 19 19 21 21 20 21 20 20 20 19 20 20 21 23 21 20 22 23 22 23 24 22 21 20 19 19 20 20 20 19 19 19 19 19 19 19 19
12 13 14 15 15 15 16 16 16 16 15 15 14 14 14 14 14 14 13 13 13 12 12 11 11 15 20 21 20 20 20 20 20 20 20 20 19 20 21 20 20 20 19 19 19 19 19 19 19 20 20 19 19 21 21 20 21 21 20 21 19 19 20 21 22 21 20 22 22 21 23 23 22 21 21 20 19 19 20 19 19 19 19 19 19 19 19 19
12 13 14 15 15 16 16 16 16 16 15 15 14 13 13 13 13 13 12 12 14 15 16 15 15 18 20 20 19 20 20 20 20 20 20 20 19 20 20 20 20 21 21 21 21 19 19 20 20 20 21 20 21 21 21 20 20 21 21 21 21 20 20 21 21 19 18 21 22 22 22 22 22 22 22 20 18 19 19 18 19 18 18 19 19 19 19 18
13 14 15 15 16 16 16 17 17 16 16 15 14 13 14 15 15 15 13 13 15 17 18 18 17 18 19 19 19 20 20 20 20 20 20 20 20 20 20 20 20 21 21 20 21 18 18 20 20 20 21 21 20 19 19 19 19 20 20 20 20 20 21 22 21 19 17 20 22 20 21 21 22 22 22 20 18 19 19 19 19 19 19 19 19 19 19 18
13 14 15 15 16 16 17 17 16 16 16 15 14 15 16 16 16 17 16 16 16 15 17 17 16 17 18 18 18 19 20 20 21 20 20 20 20 21 20 19 21 21 19 18 19 18 18 20 20 20 20 19 18 17 17 18 18 19 20 21 20 20 21 21 20 18 17 20 21 19 20 22 22 22 21 20 20 20 20 19 19 19 19 19 19 19 19 19
14 15 15 16 16 17 17 17 16 16 16 16 15 16 17 16 17 17 16 17 17 14 15 15 15 16 17 17 18 19 19 20 21 21 20 20 20 21 20 19 21 20 18 17 19 19 19 20 20 19 17 16 16 15 17 18 18 19 19 20 20 19 20 20 19 18 17 20 22 19 21 23 22 21 20 19 21 22 20 19 19 19 20 19 19 19 19 18
14 15 15 16 16 17 16 16 16 16 17 16 16 16 16 16 17 17 16 17 17 16 16 16 17 18 18 18 18 18 20 21 22 21 20 20 21 20 20 20 20 20 19 19 20 20 20 20 19 17 16 17 17 15 17 19 18 19 19 20 20 19 20 21 20 19 17 18 20 19 20 22 21 21 20 18 18 19 19 17 17 18 19 20 20 20 19 19
14 15 16 16 16 16 16 16 16 16 17 16 17 17 17 17 17 16 17 16 16 17 17 17 17 18 20 20 19 19 21 20 21 21 20 21 21 19 20 20 19 20 20 20 20 20 21 20 17 16 16 18 19 16 17 20 19 19 19 20 20 20 20 20 20 19 18 17 17 19 21 21 21 21 21 18 16 18 18 18 18 18 17 18 19 19 19 19
15 15 16 16 16 16 16 16 16 16 17 17 17 17 17 17 17 17 17 16 17 18 18 18 18 19 20 20 19 20 20 20 21 21 20 21 21 20 20 19 19 21 19 18 19 20 20 17 15 17 18 17 19 18 18 20 20 19 20 20 21 21 21 20 19 20 20 20 17 18 20 21 20 21 22 19 18 20 19 19 20 19 18 17 17 18 18 18
15 15 16 16 16 16 15 16 16 16 17 17 17 17 17 18 17 17 17 17 18 19 19 19 19 20 21 20 19 19 20 21 20 19 20 21 21 21 21 19 19 20 19 18 19 20 19 16 15 18 18 18 19 19 18 19 20 20 20 19 19 20 21 20 20 20 21 20 17 16 20 21 20 22 21 18 20 22 21 21 20 19 18 18 18 18 18 18
15 16 16 16 16 15 16 17 16 16 17 18 18 17 18 18 17 17 17 18 19 19 20 20 20 21 21 20 20 20 21 21 20 20 20 21 21 21 21 20 19 19 18 18 19 19 18 17 17 18 19 19 19 20 18 18 20 21 18 18 19 20 21 20 20 20 19 19 18 17 19 20 20 21 19 17 20 22 22 22 20 19 19 19 19 19 18 18
15 16 16 16 16 16 16 17 16 16 18 18 17 18 18 18 17 17 18 18 19 19 20 20 20 21 21 20 20 21 20 20 21 21 20 20 21 21 21 21 20 20 18 18 20 18 18 19 19 19 19 20 21 21 18 18 21 19 15 16 18 18 19 19 20 20 18 18 20 19 18 19 20 21 19 18 20 22 21 21 20 19 19 18 18 18 18 18
16 16 16 16 16 16 16 17 17 17 18 18 17 18 18 18 18 18 18 18 19 20 20 21 21 21 20 20 20 20 20 20 21 21 20 21 21 21 21 20 20 20 17 18 21 19 18 19 19 19 20 21 20 18 16 18 20 17 14 16 17 16 17 18 19 19 18 18 21 19 18 19 20 21 20 20 20 20 20 19 19 19 18 18 18 17 17 17
16 17 17 17 16 17 17 17 17 18 18 18 18 18 18 18 18 18 18 18 19 20 20 21 21 20 20 21 20 20 20 20 20 20 21 21 21 20 18 18 19 20 18 18 19 19 17 16 16 18 20 20 18 15 14 17 17 15 17 19 19 18 18 18 18 19 19 19 19 17 16 18 19 20 20 19 18 17 17 17 18 18 18 18 17 17 16 16
17 17 17 17 17 17 17 17 18 18 18 18 18 18 18 18 17 17 18 18 19 19 20 20 20 19 19 20 20 19 20 20 19 20 21 20 20 21 19 19 20 20 19 19 19 19 18 17 17 18 18 18 18 17 15 15 15 16 19 20 20 19 19 19 18 18 18 19 18 15 14 17 19 20 19 17 17 16 15 16 17 17 17 17 17 16 16 15
18 18 18 17 17 17 17 18 18 18 18 18 17 17 18 17 17 17 18 18 19 19 19 19 19 19 19 19 19 18 19 20 19 19 19 19 20 20 18 19 20 20 19 19 19 19 20 20 18 18 18 18 19 19 17 16 17 18 20 20 20 19 18 18 19 18 18 18 17 14 14 17 19 19 18 16 17 16 16 16 16 16 16 16 16 16 15 15
18 18 18 18 17 17 18 18 18 18 18 17 17 18 18 17 17 17 17 18 18 18 18 18 18 17 18 19 18 17 18 19 18 18 17 18 19 18 16 16 17 19 19 17 18 19 21 20 18 19 19 18 19 21 20 19 18 19 20 20 20 19 17 17 17 16 17 18 16 14 16 18 19 19 17 16 17 16 16 16 16 15 15 15 15 15 15 15
19 19 18 18 18 18 18 18 18 17 17 17 18 18 17 17 17 16 17 18 18 18 18 17 17 18 18 18 17 17 18 18 17 18 18 18 19 18 17 17 16 18 18 17 17 18 19 20 19 20 19 18 19 20 20 20 19 18 19 19 20 19 18 18 18 18 18 18 16 15 17 19 19 18 16 16 16 16 16 16 15 15 15 15 15 15 15 15
18 18 18 18 18 18 18 18 18 17 17 17 18 17 17 17 16 16 17 18 17 18 18 16 18 19 18 17 17 16 18 18 17 18 18 18 18 17 17 17 17 17 18 18 17 17 17 19 19 18 17 17 19 18 18 20 19 17 17 19 20 20 20 17 16 17 17 17 17 16 17 18 18 17 16 16 16 16 16 16 16 16 15 15 15 15 15 15
18 18 18 18 18 18 18 18 18 18 17 17 18 17 17 17 16 16 17 17 17 18 18 18 18 19 18 17 17 17 17 18 17 18 18 17 16 16 16 17 17 16 17 18 17 17 17 19 19 18 17 17 17 17 17 19 20 17 17 19 18 18 19 17 14 13 14 17 17 16 17 18 17 17 17 17 17 17 16 16 16 15 15 15 15 14 14 14
18 17 18 17 17 17 18 18 17 17 17 17 18 17 16 16 16 17 17 17 17 17 18 18 18 18 18 17 17 17 17 17 17 18 18 16 16 16 16 17 17 16 17 17 17 17 17 19 19 18 19 18 15 17 18 17 18 18 19 19 17 16 18 18 16 15 14 17 17 15 17 18 18 18 17 17 17 17 16 16 15 15 15 14 14 14 14 13
17 16 17 17 17 17 18 18 17 17 17 17 17 16 15 16 16 16 17 16 17 17 18 18 17 17 17 17 17 17 17 18 17 18 18 17 16 16 15 16 17 16 15 16 17 16 16 19 19 16 17 18 16 17 19 17 17 18 18 18 17 18 19 18 17 17 16 16 16 15 15 16 18 18 17 17 17 17 16 15 15 15 14 13 13 13 13 13
16 16 17 16 17 18 18 17 17 17 17 17 17 16 15 16 16 16 16 16 17 18 18 18 17 16 16 17 17 16 16 17 17 17 17 17 16 15 15 15 16 16 15 15 17 16 15 17 18 17 16 17 17 19 19 18 17 17 17 17 17 18 18 18 17 18 18 16 15 16 16 17 19 18 18 18 16 16 16 15 14 14 13 12 12 12 12 12
13 16 17 16 17 18 17 17 17 17 17 16 16 16 16 16 17 17 16 16 17 18 17 17 17 17 16 16 16 16 16 16 17 16 16 16 16 15 14 14 15 16 15 15 16 15 15 16 17 18 17 17 18 18 18 19 18 18 18 18 17 16 16 17 17 17 18 17 15 15 16 18 18 16 17 18 16 15 15 14 14 13 12 12 12 11 12 12
11 16 17 16 17 17 17 17 16 15 16 15 14 15 16 16 17 17 16 16 16 17 17 17 17 17 17 16 16 16 16 16 16 16 16 16 16 15 14 13 13 14 15 16 16 15 16 16 16 17 18 18 18 16 15 16 17 17 18 18 18 17 17 18 17 15 16 17 16 15 17 19 17 14 16 16 15 14 14 13 13 13 12 12 11 11 11 11
13 17 16 16 17 17 17 17 13 11 14 16 14 15 15 15 16 16 16 16 16 16 16 17 16 16 16 16 16 16 16 16 16 16 16 15 14 15 14 12 11 12 14 16 15 14 15 15 16 16 17 17 16 13 12 13 14 15 16 16 16 17 17 19 18 16 16 15 15 15 16 17 15 13 14 14 13 13 13 13 13 12 12 12 11 11 10 10
14 15 16 16 17 16 17 17 13 12 15 15 14 14 14 15 16 16 16 16 16 16 17 16 16 16 16 15 15 15 16 16 15 15 15 14 13 14 13 12 12 12 14 15 15 14 14 15 15 16 17 16 15 13 12 12 13 15 15 14 14 16 16 17 16 16 16 15 15 15 15 16 15 12 12 12 12 12 12 12 13 12 12 11 11 11 10 10
11 11 14 15 16 17 17 16 15 15 15 14 14 15 14 14 15 15 15 15 15 15 16 16 15 15 15 14 15 15 15 15 15 14 14 14 14 14 13 12 13 14 14 15 15 15 15 15 15 15 15 15 16 15 15 15 15 16 15 13 13 14 14 14 14 15 15 15 15 16 16 17 15 12 12 13 12 13 13 12 12 12 12 12 11 10 10 10
11 11 12 13 14 15 14 13 14 15 14 13 15 14 14 14 14 14 14 14 13 13 15 15 14 14 14 13 14 14 13 14 15 14 13 13 13 13 12 13 13 14 14 14 14 15 15 14 14 15 14 14 15 15 16 16 15 15 14 13 13 13 14 15 15 15 15 14 14 15 17 17 15 13 13 13 12 13 13 12 12 12 11 11 11 10 10 10
12 13 13 13 13 12 11 9 10 13 13 13 14 13 13 14 14 13 14 14 13 13 13 13 13 14 14 13 14 14 13 13 13 13 13 13 14 13 12 12 13 13 14 14 13 14 14 13 14 15 15 14 15 15 14 13 14 15 15 15 14 13 13 15 15 15 15 14 14 15 15 16 16 15 14 13 12 13 13 12 12 12 11 11 10 10 10 10
11 11 10 11 12 12 11 9 9 11 12 12 13 12 12 13 13 13 14 13 13 13 13 12 12 14 14 14 14 14 12 12 12 13 13 12 13 13 11 12 13 13 14 14 13 13 14 13 13 13 14 14 14 14 12 11 13 14 14 15 14 13 13 14 15 15 15 14 14 15 14 15 16 16 15 15 14 13 13 12 12 12 11 10 10 10 10 10
10 9 7 8 10 11 11 10 9 10 11 11 11 11 11 12 12 13 13 13 12 12 13 13 12 12 12 13 13 14 12 12 13 12 11 11 12 13 13 12 12 12 13 14 13 13 13 13 12 12 13 13 12 12 11 11 12 13 13 14 14 13 13 13 15 15 14 15 15 15 15 15 15 16 17 16 15 14 14 13 12 11 10 10 10 10 11 11
8 8 7 7 9 9 9 8 8 9 11 10 11 10 10 11 11 11 11 12 12 12 12 13 12 11 11 11 13 13 12 12 12 11 11 11 11 12 13 13 12 12 13 13 13 12 13 13 12 11 12 13 12 12 12 11 12 12 12 13 13 13 13 13 14 14 13 14 14 14 15 15 15 16 17 15 13 13 12 11 10 10 10 10 10 11 11 11
6 6 6 7 9 8 7 8 9 10 10 9 10 10 9 10 10 10 9 10 12 11 11 12 12 10 10 11 12 11 10 10 12 11 11 12 11 11 12 13 12 12 12 13 12 11 12 12 11 11 12 12 13 13 12 12 12 12 13 13 12 12 12 12 12 12 12 13 13 12 13 13 13 14 14 11 10 10 11 11 11 11 10 10 10 11 11 11
3 3 4 7 9 8 7 7 7 9 10 9 9 9 9 9 9 8 9 9 9 10 10 11 11 10 10 11 11 10 8 8 9 10 10 11 12 11 12 12 12 12 12 12 11 12 12 11 11 11 11 11 12 13 13 13 12 12 12 12 12 12 12 11 11 12 12 13 13 12 12 12 13 13 11 10 10 11 11 11 11 11 10 10 10 11 12 11
2 3 3 5 8 7 6 7 7 8 9 8 7 8 8 8 7 8 10 9 8 8 8 8 10 10 10 11 10 9 8 8 8 9 9 10 10 11 11 10 11 11 11 11 10 11 11 11 11 11 10 11 12 12 12 12 11 11 11 11 12 13 12 12 12 12 12 13 13 13 12 13 12 12 12 12 11 11 11 11 11 11 10 10 10 11 11 11
Height
794 794 792 792 791 790 789 788 788 787 786 785 785 784 783 783 782 782 782 781 781 781 781 780 779 779 778 777 776 774 772 771 770 770 769 764 763 764 765 765 767 768 769 770 770 771 771 772 772 772 772 773 775 775 775 776 775 777 783 791 791 792 787 779 780 777 775 772 767 766 768 769 767 765 762 761 762 764 768 769 768 768 767 767 769 771 774 778
794 793 792 791 790 789 788 787 786 785 785 784 784 783 783 782 782 781 781 781 781 780 780 779 779 778 777 776 775 773 771 770 769 768 764 762 762 763 764 765 767 768 769 770 770 771 771 772 772 772 773 774 776 776 776 776 776 780 788 790 787 786 780 774 776 774 773 771 766 765 767 768 765 763 762 765 769 766 768 772 771 771 771 770 770 772 775 778
793 792 791 790 789 788 787 786 786 785 784 784 783 783 782 782 781 781 780 781 780 780 779 779 778 777 776 775 774 772 771 770 767 764 761 760 761 761 763 765 766 768 768 769 770 770 771 771 771 772 773 775 777 776 776 776 777 781 786 787 782 779 776 773 774 772 770 769 768 767 766 767 764 762 762 766 771 768 767 769 770 773 773 772 772 773 776 779
792 791 790 789 788 787 787 786 785 785 784 783 783 782 782 781 781 780 780 780 779 779 779 778 777 776 776 774 773 772 771 769 764 761 761 760 759 759 762 764 766 767 768 769 769 770 770 771 771 772 773 776 779 777 776 776 778 781 782 782 778 778 777 770 769 769 768 769 770 768 766 766 763 762 763 765 771 771 766 762 762 766 769 771 772 774 776 779
791 790 789 788 788 787 786 786 785 784 783 783 782 781 781 780 780 780 779 779 779 778 778 777 776 775 775 773 773 771 771 769 764 761 760 759 758 759 762 764 766 767 768 769 769 770 770 771 771 772 774 776 778 777 777 777 777 780 778 776 774 778 776 766 766 768 767 769 769 768 766 764 763 763 763 763 767 767 763 760 760 762 763 766 769 772 776 778
790 790 789 788 787 786 785 785 784 783 783 782 781 781 780 780 779 779 778 778 778 777 777 776 775 775 774 772 772 771 770 768 763 760 760 759 759 760 762 764 766 767 768 768 769 770 770 771 771 774 776 777 780 777 777 778 777 778 776 775 773 774 773 766 765 765 766 768 766 767 766 764 765 764 763 763 763 762 761 760 761 763 764 765 767 771 774 777
790 789 788 787 786 786 785 784 783 782 782 781 780 780 779 779 778 778 777 777 777 776 776 775 775 774 773 772 771 771 770 766 761 760 760 760 760 761 763 765 766 767 768 768 769 770 771 771 772 775 776 777 781 779 777 777 777 778 777 774 771 772 771 765 764 765 767 767 764 765 766 764 765 765 764 764 763 762 761 760 761 764 767 769 771 773 775 778
789 788 787 786 786 785 784 783 782 782 781 780 780 779 778 778 777 777 777 776 776 775 775 775 774 773 772 772 771 770 769 764 760 760 760 760 761 762 763 765 766 767 768 768 769 770 771 772 772 775 777 778 780 779 777 778 778 779 777 772 770 769 767 763 764 765 767 766 763 765 766 764 764 765 766 764 762 762 762 760 761 765 769 772 774 775 778 781
788 787 786 786 785 784 783 782 781 781 780 779 779 778 777 777 776 776 776 775 775 774 774 774 774 773 772 772 770 768 765 762 761 760 760 761 761 762 763 764 766 767 767 768 769 770 771 772 772 773 775 778 779 777 777 778 778 776 773 771 769 766 764 764 765 765 766 764 763 764 765 765 765 767 766 764 764 763 763 762 763 766 770 773 775 778 779 780
787 786 785 784 784 783 782 781 780 779 779 778 778 777 777 776 776 775 775 774 774 774 774 773 773 773 772 771 769 767 764 761 761 761 761 761 762 763 764 764 766 766 767 768 769 770 770 770 771 771 772 776 778 777 777 777 774 772 771 770 768 766 766 767 766 765 765 764 763 763 764 765 765 766 765 765 765 764 764 765 765 766 770 773 775 778 779 780
786 785 784 783 783 782 781 780 779 779 778 777 777 776 776 775 775 774 774 774 773 773 773 773 773 772 772 771 769 766 763 761 761 761 762 762 763 763 764 765 765 766 767 768 769 770 770 770 770 770 773 776 776 777 776 773 771 771 771 769 767 766 768 767 765 765 764 764 765 762 763 765 764 765 765 766 766 764 765 768 768 768 770 772 775 777 779 780
785 784 783 782 782 781 780 780 779 778 777 777 776 775 775 774 774 774 773 773 773 773 772 772 772 771 771 770 767 764 761 762 762 761 762 763 764 764 764 765 766 766 767 768 769 769 770 770 769 771 774 775 776 777 774 771 772 772 772 770 765 763 765 764 763 765 763 764 765 762 766 768 765 766 767 767 767 765 766 769 770 770 771 773 775 777 778 779
784 783 782 782 781 780 780 779 778 778 777 776 775 774 774 773 773 773 773 772 772 772 772 772 772 771 771 767 763 761 761 762 761 762 763 763 764 764 765 766 766 767 768 768 769 769 770 770 770 772 773 774 776 775 771 771 772 772 773 774 770 767 766 764 765 764 761 765 764 763 774 772 764 766 768 769 768 766 768 770 771 772 773 774 775 777 778 778
783 782 781 780 780 780 779 778 778 777 776 775 774 774 773 773 772 772 772 772 772 772 772 772 771 772 770 764 760 761 761 761 761 762 762 763 763 764 765 765 766 767 768 769 769 769 770 770 771 772 773 774 773 771 771 773 773 774 774 777 780 777 770 765 767 765 760 766 762 762 776 772 763 768 769 770 769 767 769 771 772 773 774 775 776 777 777 778
782 781 780 779 779 779 778 777 777 776 775 774 774 773 772 772 771 771 772 771 772 772 771 772 771 771 769 763 760 761 760 760 761 761 761 762 763 763 764 765 766 767 768 769 770 770 770 770 771 773 773 772 772 774 775 774 775 779 778 781 786 781 774 768 768 769 766 768 762 763 776 771 766 771 771 772 771 769 770 771 772 773 774 775 776 777 777 778
781 780 779 779 778 778 777 777 776 775 774 773 773 772 771 771 771 771 771 771 771 771 772 772 771 772 769 762 760 760 760 760 760 760 760 761 762 763 763 764 765 766 768 769 769 770 770 771 773 775 774 772 775 776 777 778 779 781 781 783 787 781 776 772 768 770 771 768 764 766 773 770 770 772 771 773 772 771 771 772 773 774 775 775 775 776 777 778
780 779 778 778 777 777 776 776 775 774 773 773 772 771 770 770 770 770 771 771 771 771 772 772 772 771 766 760 760 761 760 760 759 760 759 760 762 763 763 764 765 766 767 768 769 771 771 773 775 776 776 778 780 777 780 787 785 784 784 786 791 787 782 777 770 771 772 769 769 771 772 770 771 771 770 773 773 773 773 772 774 774 775 775 775 776 777 778
778 778 777 777 776 776 775 775 774 774 773 772 771 771 771 770 770 771 771 771 771 772 772 772 771 772 767 760 760 761 759 759 759 759 759 760 762 763 764 764 765 765 767 769 770 771 772 774 775 776 778 780 780 778 783 790 785 783 784 784 789 790 787 783 776 774 774 771 773 775 773 771 771 769 768 771 773 774 774 775 775 775 775 775 775 776 776 777
777 777 776 776 775 775 774 774 774 773 772 771 771 771 770 770 770 770 771 771 771 769 769 769 768 769 768 762 759 759 757 757 757 758 759 760 761 763 764 764 765 765 768 771 771 772 774 774 777 779 780 779 779 779 781 784 782 781 782 782 783 784 783 781 777 779 780 776 775 776 774 773 771 769 768 770 774 774 775 777 777 777 777 776 776 776 776 776
776 776 775 775 774 774 774 773 773 772 772 771 771 770 771 772 771 771 771 770 769 766 764 765 765 766 764 760 759 758 757 756 757 758 758 759 760 762 764 765 766 766 770 773 773 775 777 778 782 781 779 778 780 783 783 785 786 784 783 783 784 784 779 776 777 781 783 777 776 780 779 776 772 768 767 771 775 775 775 777 777 777 777 776 776 775 775 775
775 774 774 774 773 773 773 773 772 772 771 771 770 770 771 773 774 773 771 767 764 763 763 763 764 764 761 759 759 758 758 757 756 757 758 758 759 762 765 767 768 771 776 779 778 777 778 781 782 777 777 780 783 787 787 787 788 786 784 783 785 787 779 777 780 782 783 778 778 784 780 773 771 768 768 771 771 770 771 774 774 774 774 774 774 773 773 773
774 773 773 773 772 772 772 772 772 771 771 771 770 770 771 772 773 772 772 770 764 762 763 763 763 763 759 758 758 758 761 760 758 757 757 758 759 762 767 769 771 773 778 780 778 778 781 781 778 777 783 786 788 791 788 786 788 787 787 785 784 786 783 780 781 782 784 777 775 783 779 771 770 770 770 771 768 765 767 770 770 770 771 771 771 771 772 773
773 772 772 772 772 772 772 771 771 771 771 770 770 770 771 771 770 770 771 773 768 761 762 762 762 761 758 757 757 758 760 760 760 758 756 758 760 763 766 769 773 775 776 776 776 781 783 778 777 783 785 783 785 791 787 784 787 787 787 785 784 787 786 780 779 782 786 783 780 782 779 772 770 770 771 774 773 769 769 771 771 771 769 767 767 767 769 771
772 772 772 771 771 771 771 771 771 770 770 770 770 770 771 770 770 770 770 774 773 763 759 760 759 758 757 755 755 757 759 759 759 757 755 757 761 764 765 769 774 775 775 775 776 779 778 776 781 784 784 780 782 789 787 782 784 787 787 784 783 784 782 780 781 781 783 786 786 782 777 773 772 772 770 774 777 773 769 769 768 770 770 769 767 766 766 767
772 771 771 771 771 770 770 771 770 770 770 769 770 770 770 769 768 768 770 776 775 764 758 758 758 757 754 754 755 756 757 758 757 756 755 756 759 764 766 769 771 773 776 779 779 776 774 780 783 781 782 782 781 784 784 780 782 785 782 778 778 777 778 781 783 782 780 783 788 787 782 778 775 772 770 774 774 769 768 768 766 767 769 771 770 767 766 766
771 771 771 770 770 770 770 770 769 770 769 769 769 769 769 768 767 767 771 778 775 765 760 759 759 756 753 755 756 756 761 760 755 754 755 755 756 759 765 771 771 773 777 779 777 775 777 782 782 778 779 781 781 781 781 779 782 783 777 775 777 777 777 780 780 781 782 785 791 793 788 784 778 770 771 777 772 765 764 764 765 768 768 767 768 766 765 765
771 771 770 770 770 770 770 769 769 769 768 769 768 768 768 766 766 766 771 781 779 768 763 760 758 756 753 755 754 758 766 763 755 755 755 755 755 756 763 770 772 773 776 777 777 777 777 779 781 779 778 779 779 777 778 779 778 778 778 778 778 776 777 780 779 781 786 788 790 791 788 788 784 773 775 780 772 765 763 762 764 767 767 766 764 763 763 762
771 770 770 770 770 769 769 769 769 768 768 768 767 767 767 765 766 767 775 787 781 766 762 759 755 753 753 754 754 758 762 759 759 759 754 754 756 757 762 767 767 770 774 776 777 779 777 774 776 777 776 776 772 769 775 776 774 778 784 784 781 780 780 780 781 784 791 792 786 787 789 791 786 774 774 776 770 767 766 766 767 765 765 766 764 763 762 760
771 770 769 769 769 769 769 768 768 767 767 767 767 766 765 765 766 769 780 788 775 761 761 757 753 755 755 756 758 759 757 757 760 759 754 755 756 757 763 765 766 770 774 775 773 774 775 774 773 773 772 770 768 773 777 774 773 781 787 784 783 787 786 785 786 785 792 795 786 787 792 793 786 774 772 775 773 772 772 771 770 767 765 764 763 764 762 760
769 769 769 768 768 768 768 768 767 767 767 767 766 765 764 765 769 778 788 785 772 764 761 756 757 759 759 759 761 761 759 759 760 758 756 758 757 758 764 766 766 769 774 775 773 772 774 775 775 772 768 768 772 781 783 778 778 783 782 778 779 785 786 788 790 787 793 796 790 796 801 796 790 780 777 782 781 782 782 777 772 768 766 763 762 762 761 759
768 768 768 767 768 767 767 767 766 767 767 766 766 764 765 770 777 786 788 779 771 767 762 761 763 762 763 764 765 765 763 762 762 761 760 762 761 761 765 767 766 771 775 775 773 773 773 773 774 769 767 770 772 777 783 782 783 781 775 774 780 786 787 789 791 792 799 798 794 805 808 798 792 783 781 786 785 786 786 782 778 773 770 767 764 763 761 759
767 767 767 766 767 767 766 766 766 766 766 765 766 764 768 778 784 786 782 773 773 771 766 767 767 766 767 767 769 771 767 765 766 766 768 768 767 768 772 773 770 775 782 781 777 774 768 766 771 769 765 768 767 772 781 782 781 778 774 778 785 791 796 798 796 798 800 795 797 808 807 797 788 779 782 787 784 783 785 783 781 778 775 772 768 765 762 759
766 766 766 766 766 766 766 766 765 766 765 765 766 766 773 784 786 785 781 775 775 772 768 769 770 771 770 767 772 774 770 770 770 769 772 772 770 775 780 780 776 775 781 786 785 778 769 765 768 767 764 766 765 768 775 777 778 775 773 779 785 794 808 810 807 809 802 794 800 807 802 793 784 779 784 786 783 783 783 782 781 780 778 775 771 767 763 761
766 765 765 765 765 765 765 765 765 765 765 765 766 770 779 786 786 784 781 776 774 771 770 772 772 771 772 772 777 777 773 775 773 770 771 771 773 777 778 779 779 776 778 785 787 784 781 775 767 764 766 768 766 764 766 769 775 778 774 775 779 785 797 801 798 797 794 793 802 805 798 789 782 782 785 783 783 784 782 782 781 779 778 775 772 769 765 763
765 765 765 764 765 764 764 764 764 764 765 765 769 777 783 784 784 784 779 775 774 771 771 774 771 771 775 777 779 778 774 775 775 773 773 775 779 781 781 779 780 779 779 784 787 788 790 781 767 767 770 768 766 767 767 766 772 783 780 775 777 774 778 795 803 799 795 795 799 799 793 786 783 784 785 783 783 783 782 782 780 779 777 774 772 770 768 766
765 764 764 764 764 764 763 763 763 764 765 767 772 779 781 779 780 780 776 773 773 771 770 773 772 773 778 779 778 778 775 774 776 775 777 782 785 785 784 780 779 780 779 780 785 787 787 778 767 769 770 768 769 768 767 766 769 780 780 773 777 775 773 792 809 814 809 798 795 796 791 785 785 785 783 783 783 782 783 781 779 780 777 774 774 773 771 769
764 763 764 764 764 764 763 763 763 764 765 768 773 778 779 777 776 775 773 772 773 772 771 775 776 777 780 781 780 778 776 776 778 776 779 785 786 785 785 781 778 780 778 779 782 783 785 777 767 769 768 767 771 768 766 768 768 774 775 770 775 779 777 783 797 809 811 800 796 799 793 785 785 785 783 783 783 782 783 782 781 781 778 778 778 776 775 773
764 763 764 764 764 763 763 763 763 763 766 769 774 779 779 776 774 773 771 772 772 771 771 775 778 780 782 782 781 780 779 779 779 779 780 784 785 785 786 784 779 779 779 778 778 783 786 779 770 773 772 768 769 767 767 770 769 770 769 768 773 778 779 783 792 798 802 803 800 798 799 792 781 780 782 782 783 783 783 784 782 782 782 783 782 779 778 776
764 764 764 765 764 763 762 763 763 764 768 772 776 778 777 774 772 771 771 772 771 770 772 775 777 780 782 781 781 782 783 781 781 783 782 783 786 786 787 786 781 779 780 779 779 783 787 784 777 773 774 772 768 767 769 770 771 771 770 772 776 776 777 780 785 783 786 799 802 795 795 787 773 775 778 778 783 784 784 785 785 785 786 786 785 783 781 779
765 765 765 765 763 762 762 763 764 766 769 774 777 776 775 773 770 769 770 771 770 769 772 775 777 778 780 782 782 782 784 783 782 784 784 783 785 786 789 789 784 780 780 780 781 783 785 787 783 773 771 773 770 771 773 771 771 772 772 775 777 780 782 780 782 783 781 791 801 799 792 778 772 778 776 776 782 784 784 786 787 788 788 787 787 785 784 783
768 767 766 764 762 762 762 763 768 773 773 776 779 776 774 773 769 769 770 769 769 769 771 773 775 776 777 780 782 781 782 783 782 783 783 783 785 787 788 790 790 786 780 778 780 784 784 786 787 780 773 772 773 777 780 777 775 773 771 773 774 778 781 779 784 789 784 784 792 796 788 774 774 781 778 779 784 784 786 787 787 789 789 788 788 786 786 786
769 769 766 764 762 761 762 766 777 783 776 773 776 774 773 772 771 771 770 769 769 770 770 771 774 776 776 778 780 781 780 782 784 783 782 785 788 788 788 790 792 790 783 781 783 785 785 785 787 784 777 775 779 784 786 784 782 778 776 777 776 776 776 774 779 785 786 789 790 791 787 777 776 783 782 783 787 786 787 787 787 790 790 790 789 787 787 787
772 770 764 763 762 761 763 769 777 780 774 773 776 775 774 773 772 771 771 770 770 770 770 772 775 776 777 779 780 781 780 781 784 785 785 789 790 788 788 789 790 788 784 783 785 786 786 786 787 784 779 777 779 783 786 785 783 779 779 783 782 778 777 777 779 782 785 788 788 790 791 781 778 787 788 786 788 788 788 787 787 788 789 790 790 789 788 788
776 774 768 764 760 758 764 770 772 772 774 776 774 773 774 774 773 773 773 774 774 773 772 774 776 776 778 781 780 781 782 782 784 787 788 789 788 788 789 788 786 785 784 783 784 784 785 787 788 789 788 785 782 782 781 779 779 778 780 788 788 784 783 784 786 786 786 788 786 785 785 777 778 788 788 785 788 787 788 789 787 787 787 788 790 790 790 789
776 774 771 767 762 761 769 776 774 773 776 777 775 776 778 775 775 776 775 777 779 778 776 776 779 779 780 783 783 784 787 784 784 788 790 790 789 788 790 788 786 785 783 784 784 782 785 789 788 790 795 796 791 787 782 779 780 782 783 786 787 786 784 781 783 785 787 792 791 784 778 775 778 785 784 785 789 787 788 790 789 788 788 789 790 791 791 791
776 774 773 771 768 769 778 784 782 777 778 778 777 782 782 777 778 779 777 778 781 781 780 780 781 780 780 782 783 784 788 788 787 787 788 789 788 788 791 789 788 787 784 784 785 784 788 791 789 786 788 789 785 783 788 789 785 782 781 781 784 788 786 781 782 783 782 788 789 784 781 778 777 780 782 784 787 785 786 789 788 788 789 790 791 792 791 791
780 783 786 782 776 777 781 785 786 783 782 781 781 785 786 782 781 779 777 780 782 781 782 783 783 781 780 782 782 784 789 791 789 788 791 793 791 790 792 790 788 788 784 785 786 786 789 790 791 790 787 786 785 785 793 797 788 783 782 780 781 786 786 781 780 780 781 785 784 780 783 782 776 775 777 779 782 783 784 785 785 786 788 789 791 791 790 790
785 790 796 792 787 787 785 786 790 789 786 786 787 789 789 785 784 783 781 782 782 782 782 783 786 786 785 785 783 784 789 790 790 792 795 796 793 789 788 789 790 789 787 786 786 787 790 789 792 794 788 788 791 791 794 796 790 787 786 782 780 783 785 782 778 778 781 780 776 775 777 777 775 772 770 771 774 776 778 781 784 786 788 789 789 789 788 788
791 793 797 795 792 794 794 794 794 791 788 788 789 791 793 790 789 791 791 787 784 785 785 783 786 790 791 789 785 785 790 790 790 794 795 794 795 793 788 788 791 791 789 788 788 791 790 788 792 795 790 788 789 789 792 792 788 786 785 783 782 782 783 781 777 778 780 777 775 777 775 772 772 770 767 770 775 776 778 783 786 786 787 788 788 788 787 787
799 800 800 796 793 796 797 797 794 789 789 793 792 793 797 796 794 796 796 793 788 788 790 786 788 794 795 791 789 792 800 799 793 794 795 794 796 796 792 789 790 791 789 789 792 793 791 791 795 796 792 788 785 785 787 787 785 783 780 781 784 785 785 785 783 784 785 781 781 783 782 777 773 771 772 778 782 782 782 784 785 785 786 788 788 787 786 786
805 806 806 800 796 798 798 799 799 793 792 797 798 797 798 799 800 800 798 798 797 796 795 793 792 795 795 792 793 798 805 806 801 798 797 794 793 794 793 792 792 791 790 792 794 792 792 795 797 795 794 790 785 783 783 782 784 784 782 783 784 782 783 785 783 783 781 778 778 781 781 776 771 772 777 781 782 782 781 782 784 785 788 788 787 785 785 785
807 806 807 803 799 802 803 802 801 797 796 803 805 802 801 802 804 802 798 799 802 801 801 800 795 795 795 795 798 801 803 804 801 800 799 796 795 795 794 795 795 793 793 796 797 796 796 795 794 796 798 793 787 785 785 786 787 782 780 782 779 774 775 777 777 778 776 774 774 774 773 771 771 774 775 776 779 780 780 782 784 786 787 788 787 785 784 784
Wind_Speed
9 9 9 9 8 8 8 8 8 8 7 8 8 9 9 9 9 8 8 8 7 7 8 9 9 10 11 11 12 13 15 15 14 11 7 9 7 5 6 4 8 10 6 4 5 5 4 3 2 2 4 2 1 0 0 1 1 1 1 1 2 2 2 3 4 3 1 5 7 5 3 5 3 3 1 3 8 10 9 4 3 4 5 5 10 18 23 20
9 9 9 8 8 8 8 8 8 8 8 8 9 8 8 8 8 8 7 8 7 7 8 8 9 10 10 11 12 13 16 16 13 11 8 7 7 6 6 5 8 9 6 4 5 6 5 2 1 2 2 1 1 1 0 0 0 1 1 1 3 3 2 3 3 2 3 6 10 9 4 4 4 4 2 4 9 11 11 6 4 7 8 10 15 22 23 20
9 9 9 8 8 8 8 8 8 8 8 8 8 9 8 8 8 8 8 8 8 8 8 9 10 10 10 11 11 13 14 11 6 4 3 3 5 9 9 9 10 8 6 5 6 6 5 3 2 3 1 1 1 1 1 0 1 1 1 2 3 3 3 3 4 5 6 7 9 9 5 2 3 2 2 6 9 9 10 9 8 9 10 13 16 21 22 21
10 9 9 9 8 8 8 8 8 8 8 8 8 8 8 8 8 8 8 8 7 8 8 9 9 9 10 11 11 12 9 4 0 1 3 6 4 9 13 13 11 7 6 7 8 6 4 3 3 2 1 2 1 1 1 0 1 1 2 3 2 2 4 5 5 7 6 4 4 6 6 2 1 1 3 10 9 6 8 9 8 12 16 17 17 19 21 20
10 10 9 9 8 8 8 8 8 8 8 8 8 8 8 8 8 8 8 8 8 8 8 8 8 10 10 11 11 8 4 0 1 3 5 5 2 12 16 14 10 7 9 9 8 5 4 3 2 3 1 2 1 1 1 0 2 2 3 3 3 3 5 6 3 6 4 2 3 4 5 2 1 1 7 12 9 3 4 5 2 9 18 20 20 20 19 19
9 9 9 9 9 9 9 9 9 9 9 8 8 8 8 7 8 8 8 7 7 7 7 7 8 9 10 11 8 4 2 0 1 5 6 3 8 16 17 13 9 8 10 9 6 4 3 3 1 2 1 1 1 1 1 1 2 4 2 1 4 4 5 5 2 4 2 2 6 3 3 3 2 2 7 8 3 2 3 2 4 9 15 19 21 20 18 18
10 10 10 10 10 10 10 9 9 9 9 9 8 8 8 8 8 8 7 7 7 7 7 7 7 8 9 9 3 1 1 1 4 6 4 6 13 16 16 13 9 10 10 8 6 2 2 2 2 2 1 1 2 1 0 1 1 3 2 2 4 4 7 7 5 4 1 5 7 1 2 4 4 1 4 7 2 3 4 3 10 12 14 17 18 18 17 16
11 11 10 10 10 10 10 9 9 9 9 8 8 8 8 7 7 7 6 6 6 6 5 5 6 7 8 6 1 1 1 2 6 5 2 10 16 16 16 12 9 9 9 7 5 3 2 3 3 2 0 1 2 2 1 1 1 3 4 3 3 3 7 8 6 5 3 6 6 2 4 3 2 1 4 6 2 1 2 8 13 14 15 15 15 17 16 15
11 11 10 10 10 10 10 9 9 8 8 8 7 7 7 7 7 7 6 6 5 4 4 4 5 6 6 4 1 1 1 4 6 2 5 10 15 16 14 10 9 9 8 7 5 4 3 2 2 2 1 2 2 2 1 2 2 4 5 3 4 6 6 5 5 5 4 4 3 2 1 2 2 0 3 2 2 2 6 10 14 15 16 15 14 15 15 16
11 10 10 10 10 10 9 9 8 8 7 7 7 7 7 7 7 6 6 5 4 4 3 4 4 5 4 1 1 1 1 5 4 6 6 7 14 16 12 8 9 10 8 6 6 5 3 2 2 2 2 2 2 1 1 2 1 3 5 4 7 8 5 4 4 3 2 1 2 2 2 3 2 1 2 3 2 6 9 9 12 14 15 15 14 13 14 15
11 11 11 10 9 9 8 8 8 7 7 7 7 7 7 7 6 6 5 4 3 3 3 3 4 5 3 1 0 1 1 3 5 6 5 6 10 14 11 8 10 11 10 5 5 7 3 3 4 1 1 2 2 1 2 2 0 2 4 6 7 5 2 3 2 2 1 1 2 2 3 2 1 1 1 2 2 5 9 10 10 12 13 14 15 14 13 13
11 11 10 9 8 8 8 8 7 7 7 7 8 7 7 7 6 5 4 3 3 2 2 2 3 5 3 0 1 1 1 2 4 6 6 6 7 9 8 6 8 10 10 5 5 11 7 4 4 1 1 1 1 0 2 1 1 1 1 5 7 1 1 3 2 1 1 1 1 2 2 1 2 1 2 1 3 5 9 10 9 9 9 11 12 11 9 9
11 10 9 8 8 8 8 7 6 7 7 7 8 8 7 7 5 5 4 3 2 2 2 1 3 4 2 0 1 1 1 2 2 4 6 6 6 6 5 5 6 7 8 5 2 7 10 6 1 1 1 2 2 1 1 0 1 2 1 2 5 1 2 7 4 2 1 2 1 3 1 1 2 1 3 1 4 8 9 9 8 8 7 8 9 8 8 8
11 9 8 8 7 8 7 6 6 6 7 7 8 8 7 7 5 4 3 3 2 2 1 2 3 2 1 1 1 1 3 3 1 3 6 7 6 5 6 6 7 8 9 5 1 2 7 8 2 1 1 2 2 3 2 1 1 2 1 0 2 0 2 6 4 4 3 2 2 2 2 2 1 3 3 2 4 9 9 9 9 8 8 8 8 8 9 9
10 8 8 7 7 7 6 6 6 6 7 8 8 9 7 6 4 3 3 2 2 1 0 1 3 2 0 1 0 1 3 2 1 2 4 7 7 4 4 6 7 8 10 8 3 2 3 6 3 1 1 1 1 2 2 1 2 2 1 0 1 0 1 4 3 5 4 1 3 1 2 2 2 4 3 2 3 6 8 10 9 9 10 9 9 8 8 7
9 8 7 7 6 6 6 6 6 6 7 8 9 8 5 3 2 2 2 2 2 2 1 1 3 2 0 1 1 1 1 1 3 4 3 8 8 4 4 4 3 5 7 5 4 4 4 4 2 1 1 0 1 0 0 0 1 2 1 0 1 1 1 2 3 5 4 1 3 2 2 2 2 4 3 2 3 6 7 9 10 9 9 9 9 8 7 6
8 7 7 6 6 5 5 6 6 7 7 7 8 5 3 0 1 1 1 1 2 2 2 1 1 2 1 0 1 0 1 3 4 4 3 7 8 6 6 4 1 1 4 3 4 5 2 1 0 1 1 1 0 1 0 0 1 1 1 1 0 1 1 2 1 4 6 3 3 3 2 3 2 3 1 2 2 6 7 8 9 9 9 9 8 8 8 7
8 7 6 6 5 4 4 5 6 7 7 7 5 3 3 3 3 2 2 3 2 1 1 0 1 1 1 0 1 2 5 7 5 3 2 6 9 7 4 3 1 1 4 4 3 2 1 0 0 0 1 1 1 0 0 1 1 2 2 2 1 1 1 2 1 3 7 4 2 1 2 3 3 3 2 3 2 5 6 5 6 7 8 8 8 8 8 8
9 7 6 5 4 3 4 5 6 6 6 7 3 3 3 3 3 3 3 3 1 1 0 0 1 0 1 1 2 6 8 7 5 2 4 7 9 7 3 3 2 2 2 1 1 1 1 0 0 0 0 1 0 0 0 1 1 1 2 2 2 1 1 2 1 3 4 2 1 1 1 3 4 4 2 3 2 4 5 4 4 5 6 7 7 8 8 9
8 6 5 4 3 3 4 4 5 6 6 5 1 3 2 2 1 1 1 2 3 3 2 1 2 1 3 2 3 7 7 3 1 2 6 8 10 9 3 2 2 3 2 1 0 1 0 1 1 2 2 2 2 1 2 2 2 2 2 2 2 1 1 1 1 2 2 1 0 1 1 3 4 5 3 0 1 4 6 6 6 7 7 8 9 10 10 10
7 5 4 3 2 3 3 3 4 5 5 4 1 2 1 0 1 2 2 2 4 5 5 3 2 4 6 5 5 4 3 1 1 1 5 8 9 7 1 3 1 1 1 1 1 0 0 0 1 3 3 1 1 3 4 4 3 2 2 2 1 2 1 1 1 2 2 1 0 1 2 3 3 4 3 1 2 5 7 8 9 10 10 8 10 12 11 8
6 4 2 1 2 2 2 3 4 3 4 4 3 3 2 0 2 3 2 3 4 3 4 3 1 5 7 7 7 2 2 1 0 0 5 7 3 2 1 2 2 1 1 1 1 0 0 1 3 2 2 4 4 4 4 4 3 2 1 2 2 2 2 2 0 2 2 1 0 1 3 4 3 4 4 3 4 3 3 6 7 9 11 10 11 12 10 8
6 3 0 1 1 1 2 2 2 2 2 3 4 4 2 4 4 4 3 1 4 1 1 2 2 4 4 4 5 6 2 1 1 1 6 7 1 1 3 2 2 1 0 1 2 1 0 1 1 2 5 5 4 3 4 4 2 1 2 2 1 1 2 1 1 2 2 1 1 1 3 4 2 2 2 2 4 4 3 2 3 6 9 11 11 10 10 11
6 2 1 0 1 0 2 2 2 2 1 2 4 3 3 7 7 2 3 1 3 2 2 3 2 3 2 1 6 7 2 1 1 0 6 7 2 2 3 2 2 1 1 2 3 2 2 1 4 4 3 3 3 3 4 3 2 1 3 3 1 1 2 2 1 3 1 2 2 2 4 2 1 1 2 1 3 4 3 3 3 5 6 7 7 7 10 11
5 1 1 1 1 1 2 2 2 3 1 3 3 3 6 10 8 2 3 1 1 2 2 2 1 3 2 2 5 5 0 1 2 1 5 6 4 3 1 1 1 1 1 2 2 2 2 0 4 4 2 2 3 3 4 4 2 1 4 6 4 3 3 2 1 1 1 0 3 3 4 1 2 1 1 1 2 2 1 2 4 3 3 5 7 8 9 9
5 1 2 2 2 2 3 2 2 3 1 2 0 5 10 13 6 5 3 2 1 1 1 2 1 2 3 2 3 3 0 0 1 1 4 5 5 3 1 1 1 1 2 3 1 1 0 1 2 3 3 3 2 2 4 5 3 1 3 6 5 3 3 3 1 1 2 2 2 2 3 3 1 1 1 2 5 4 2 2 0 0 2 3 6 7 8 9
6 1 1 2 3 2 1 1 2 2 1 1 4 8 13 12 1 7 2 2 1 1 1 1 0 2 2 1 2 2 1 0 1 2 1 3 1 2 1 2 0 1 2 2 0 0 2 2 2 2 3 3 2 2 3 6 5 1 1 4 7 5 4 4 3 1 1 2 1 1 1 4 3 1 1 2 4 4 3 4 5 3 2 3 5 6 7 9
6 1 1 2 2 1 1 1 1 1 1 3 7 11 13 7 4 5 1 2 1 1 0 1 0 1 1 0 2 1 1 1 1 1 1 1 1 2 0 3 3 3 2 1 2 0 2 2 1 2 1 1 2 0 5 9 4 1 1 4 5 4 3 3 2 1 1 2 3 1 1 3 3 1 1 1 2 3 4 8 10 8 6 5 6 7 9 9
7 3 2 2 1 1 1 2 3 2 1 5 9 12 10 1 4 1 2 2 0 1 1 1 0 1 1 1 2 2 1 1 2 1 1 3 3 2 1 2 3 4 2 1 3 2 1 2 2 3 2 2 1 1 4 7 2 2 5 5 6 5 5 3 1 2 2 3 5 1 1 3 4 1 1 2 2 4 6 8 9 9 9 8 7 7 8 9
8 4 2 2 2 1 1 2 2 0 3 6 10 11 4 2 2 1 1 1 1 0 1 1 0 1 2 2 1 3 0 1 3 2 1 2 3 4 1 1 3 4 1 2 2 2 2 1 1 2 2 1 3 3 1 1 3 5 5 5 6 4 3 2 2 1 1 3 3 2 2 3 4 1 2 2 3 4 6 7 8 10 12 12 10 10 9 8
8 4 3 3 2 1 1 1 1 2 4 8 10 6 1 1 1 2 1 1 1 1 1 1 1 2 3 2 1 3 2 2 3 2 1 1 1 3 1 1 2 2 1 1 1 3 2 1 2 2 1 2 4 4 3 2 3 4 2 3 3 1 1 1 1 1 3 4 0 3 2 3 4 1 2 2 4 4 4 6 9 11 12 12 12 12 10 8
8 4 3 3 3 2 1 1 2 3 6 9 9 2 2 1 0 1 1 1 0 1 1 1 2 2 2 1 3 4 2 2 3 2 2 1 1 1 1 1 0 1 1 0 1 3 3 2 1 2 1 3 2 3 3 1 2 2 2 3 2 1 1 1 1 1 4 3 1 2 1 2 4 2 2 3 3 3 4 5 7 10 11 11 12 12 10 8
8 3 3 3 3 4 4 4 4 5 8 9 5 2 3 1 1 1 1 1 1 1 1 1 2 1 1 1 3 4 1 2 3 2 1 1 1 2 1 0 0 2 2 0 1 3 3 1 1 1 1 1 3 4 2 2 4 4 3 3 4 2 1 2 2 1 3 2 2 1 1 2 3 0 2 3 3 4 5 5 6 8 9 9 10 10 9 8
9 3 4 4 5 6 6 6 6 6 7 6 2 2 3 1 1 1 1 1 1 1 1 1 1 2 3 3 2 3 1 1 3 3 2 1 2 2 1 2 2 1 0 1 1 1 2 2 0 1 0 1 2 3 1 2 3 2 1 2 3 3 2 3 3 3 4 0 2 0 2 2 1 1 2 3 4 4 4 5 6 6 6 6 7 9 9 9
11 4 5 6 5 5 5 5 4 2 2 3 3 2 2 2 2 1 1 1 1 1 1 1 1 2 3 2 1 1 1 1 2 2 3 3 1 1 1 2 3 2 1 1 1 1 2 3 2 1 1 1 1 1 1 2 3 1 1 1 2 3 3 1 1 1 1 0 1 2 2 1 1 1 2 2 2 3 4 5 5 6 7 6 7 9 10 10
10 4 4 4 3 4 5 4 2 1 2 2 3 2 1 2 1 1 1 1 1 0 1 1 2 2 1 1 1 2 2 2 2 2 2 2 1 1 1 1 1 0 1 1 1 1 1 3 1 1 1 1 1 1 1 1 1 3 2 3 1 0 3 3 0 2 1 3 2 1 2 1 1 1 1 1 3 4 4 5 6 7 8 8 9 9 10 10
10 4 1 3 5 5 4 2 1 2 2 3 2 1 2 1 2 2 1 0 0 1 1 0 1 1 0 0 1 2 3 2 2 2 1 0 1 2 2 2 0 1 1 1 2 1 2 3 1 1 1 1 1 1 3 2 0 2 3 3 3 1 2 2 1 2 0 4 2 1 3 3 3 3 3 4 3 3 4 5 6 7 8 9 8 9 10 10
9 2 3 6 10 6 2 2 1 2 3 2 1 1 1 1 1 2 1 0 1 1 2 1 0 0 1 1 1 2 2 1 1 1 1 1 1 1 2 1 0 2 2 1 1 1 1 4 2 0 2 2 2 1 2 3 2 1 1 3 2 2 2 2 2 2 2 3 2 2 2 3 4 4 7 7 4 3 2 3 4 6 7 7 7 9 10 10
5 1 2 7 13 6 2 1 1 3 3 1 1 1 1 1 1 2 1 1 1 1 1 1 0 1 1 1 1 1 1 1 1 0 1 1 1 1 2 1 2 2 2 1 1 1 0 2 2 1 1 3 2 1 2 2 2 2 2 2 0 2 1 2 1 1 3 3 1 2 2 3 4 4 8 9 5 2 1 1 2 4 4 4 5 7 8 9
3 1 2 8 15 5 4 2 2 2 2 1 1 1 1 1 1 1 1 1 0 0 0 1 1 0 1 1 1 1 0 0 2 1 1 1 1 1 2 1 2 3 2 1 1 0 1 1 2 1 1 3 1 0 2 1 2 2 2 3 1 0 0 1 1 1 1 3 2 3 3 2 1 2 6 8 5 3 2 0 1 2 2 3 4 5 6 7
2 2 2 9 16 3 5 3 2 1 1 1 1 1 0 0 0 2 2 0 0 0 0 2 2 1 1 1 1 2 1 0 1 1 1 1 1 0 0 0 2 3 2 1 2 1 0 1 2 2 3 3 1 2 2 1 1 1 2 2 2 2 1 3 3 1 1 2 2 3 3 2 2 1 3 5 3 2 2 2 2 2 1 2 4 4 5 6
1 1 1 12 16 1 5 2 0 1 1 1 0 1 1 1 1 1 2 1 1 1 1 2 2 1 2 1 1 2 2 1 1 1 1 1 1 0 0 1 2 2 1 1 1 0 1 1 1 3 4 3 2 2 2 2 1 0 0 1 2 2 2 4 5 2 2 1 1 1 2 1 2 2 2 2 1 1 2 3 3 2 1 1 3 4 5 5
1 2 3 14 14 1 4 2 1 1 0 1 1 1 1 1 0 0 2 2 2 1 1 1 1 1 1 1 1 2 2 1 2 0 0 1 2 1 2 4 2 2 0 0 0 0 1 1 1 3 3 2 1 0 0 1 1 1 1 1 1 1 0 1 2 0 2 2 2 2 3 2 2 2 1 1 1 2 2 4 4 3 2 1 3 4 4 4
1 2 2 13 13 2 4 1 2 1 1 1 2 1 0 1 1 1 1 2 2 1 1 1 0 0 1 1 1 2 1 1 1 0 0 1 1 1 2 5 2 1 1 1 0 1 1 1 1 2 3 2 2 2 2 2 1 1 0 1 0 1 3 2 1 1 2 2 2 4 4 2 3 2 2 2 2 3 3 3 3 3 3 2 2 3 3 4
1 0 3 9 14 6 2 0 1 1 0 1 2 2 2 1 1 2 1 1 2 0 1 1 0 1 1 1 2 2 1 1 0 0 1 1 0 0 1 5 4 2 1 1 1 1 2 1 1 3 5 5 5 4 2 1 1 1 0 1 1 2 2 2 1 2 3 1 2 3 3 1 2 2 2 2 2 4 4 3 2 1 1 1 1 2 2 3
1 1 2 4 8 6 2 1 1 1 1 1 1 1 1 1 1 2 1 2 1 1 1 1 0 1 1 2 1 1 2 2 1 1 2 1 1 1 2 3 3 3 3 4 3 1 1 1 2 4 6 6 6 4 1 1 3 3 2 3 2 1 1 2 2 2 3 2 3 3 1 1 3 6 5 3 4 6 5 5 4 2 1 1 0 0 1 1
1 1 2 2 2 3 1 2 3 2 0 0 1 1 2 1 2 2 2 2 1 1 2 2 2 1 1 1 2 1 1 2 1 1 1 0 1 1 2 1 2 5 6 4 3 1 1 1 1 2 6 5 4 3 1 0 5 6 5 5 4 3 3 3 4 3 3 2 5 4 4 4 4 7 8 7 6 6 6 7 6 3 2 2 1 1 0 1
2 1 1 0 1 1 1 3 4 3 2 1 1 1 2 2 2 1 1 2 2 2 1 1 3 3 1 1 2 2 1 1 1 0 1 0 1 1 2 1 2 6 5 2 2 2 1 2 2 2 4 3 3 4 3 3 5 5 5 7 6 5 6 6 6 5 6 7 7 5 8 8 5 6 9 8 8 9 9 7 4 2 2 2 2 1 1 1
2 1 1 1 0 1 1 3 2 1 3 3 2 2 2 2 2 1 1 2 2 3 2 0 1 4 3 1 1 2 1 0 0 0 1 1 1 1 1 1 0 2 3 2 2 1 1 2 2 3 4 4 5 5 4 4 5 5 7 8 7 6 8 8 7 4 7 9 5 3 7 9 5 5 6 4 3 5 5 3 2 2 3 3 2 2 1 1
2 1 2 2 1 1 1 2 1 1 2 3 2 2 2 2 3 2 2 3 2 3 3 1 1 2 2 2 2 3 1 2 2 2 1 2 0 1 2 0 1 1 3 2 1 0 1 2 1 1 4 5 5 6 6 7 8 10 10 7 5 6 7 8 6 3 4 7 4 4 8 7 5 5 3 1 1 2 4 4 4 3 3 3 3 3 1 2
3 1 2 1 1 3 2 2 2 1 2 2 2 2 2 3 3 1 2 3 2 2 3 2 1 1 1 4 5 3 1 2 4 3 2 2 0 1 1 0 1 1 2 1 0 0 1 1 1 0 5 5 5 8 10 7 8 11 10 6 7 9 7 5 5 5 6 8 7 7 8 6 4 4 3 1 3 5 6 6 4 2 2 4 4 2 1 2
5 1 2 1 0 3 2 1 1 1 1 2 2 2 2 3 3 1 1 2 3 4 3 3 1 1 2 4 4 4 5 5 7 6 3 2 2 2 2 1 1 2 1 0 0 0 1 2 1 1 4 4 4 5 6 5 7 9 5 5 10 11 8 7 6 5 8 9 7 6 5 3 1 2 5 7 8 7 5 3 1 2 3 5 5 3 1 1
Wind_Direction
332 330 327 326 325 325 321 318 315 313 314 314 317 315 317 319 318 320 322 323 322 320 319 320 320 323 325 323 327 325 322 323 318 316 278 260 276 240 237 221 174 172 160 137 132 125 112 111 98 121 152 137 356 348 82 353 125 187 134 149 200 193 218 199 194 198 292 316 298 316 2 301 280 124 123 141 130 129 130 96 71 77 62 111 128 141 148 150
334 333 331 333 330 325 321 319 317 315 315 312 313 313 316 318 319 321 322 323 320 318 322 321 322 324 322 324 329 323 323 324 312 294 271 266 264 229 210 179 166 170 161 145 130 118 119 116 100 118 125 141 2 358 158 338 205 152 113 206 217 200 224 201 206 230 261 295 303 309 338 287 250 137 160 164 138 142 138 120 101 99 99 118 133 144 147 150
336 335 333 334 331 327 325 325 323 319 316 313 311 313 314 314 315 317 316 319 316 316 322 322 322 322 323 325 324 322 323 320 307 278 287 327 262 222 200 169 155 159 154 139 127 109 111 128 148 132 88 98 47 353 131 92 202 173 161 234 233 214 255 232 220 240 248 279 298 306 325 294 242 157 182 155 144 163 160 150 145 143 141 141 145 147 149 153
335 335 333 333 333 332 331 327 324 320 316 313 311 311 311 311 311 310 312 314 313 317 319 319 320 322 326 324 319 322 322 310 337 333 335 335 279 197 182 167 154 155 141 125 121 106 96 112 113 91 99 113 31 319 151 166 178 162 201 237 234 166 265 252 219 243 251 255 267 302 321 311 232 203 165 148 152 197 195 183 169 160 157 151 152 152 154 157
335 335 334 333 332 331 329 326 322 319 316 313 311 310 310 310 308 306 307 309 312 314 314 316 321 325 326 324 322 320 312 147 120 314 339 346 205 163 161 158 153 155 141 125 114 106 94 94 83 69 85 126 106 189 159 164 135 178 214 243 234 178 265 270 232 246 245 218 242 301 323 335 345 185 164 166 173 195 205 216 191 154 157 156 158 157 158 161
336 334 331 329 328 325 325 325 321 317 314 311 309 307 306 306 304 305 303 305 307 304 309 318 323 326 327 330 331 323 307 43 299 312 351 53 148 149 150 151 148 147 145 130 104 103 98 78 79 89 73 107 150 182 152 174 177 227 228 250 247 213 252 271 243 235 190 264 280 297 325 324 280 196 166 184 193 11 315 239 139 147 159 158 158 160 162 165
332 330 328 326 325 323 323 321 318 317 314 310 309 305 304 302 301 304 301 302 301 299 312 321 325 328 333 340 343 2 359 280 303 322 6 133 151 148 149 148 143 143 148 139 104 97 109 93 111 119 105 105 165 207 146 177 206 248 258 269 260 212 233 254 251 253 206 270 279 298 318 293 249 218 164 193 205 347 300 152 131 141 155 157 159 163 162 162
328 328 326 325 324 321 319 318 318 318 316 315 315 311 306 302 298 298 296 300 298 299 310 313 327 338 342 348 341 22 64 299 320 332 87 151 158 154 152 145 145 148 148 153 135 140 149 122 131 148 141 80 162 200 157 189 178 217 245 258 257 212 235 257 266 276 275 260 268 265 286 282 233 240 173 194 233 359 155 134 130 139 152 159 164 163 159 160
328 325 321 320 319 318 317 318 319 317 317 320 321 318 312 304 298 293 290 294 293 296 305 308 332 350 349 345 263 92 117 322 338 63 111 156 166 161 159 153 156 157 150 162 162 157 167 159 146 178 187 94 178 216 160 214 206 200 227 244 252 264 267 282 291 283 276 261 245 233 278 57 53 316 177 163 20 119 135 133 134 142 155 161 163 161 160 162
323 320 318 317 316 318 319 321 324 324 324 324 324 322 315 309 302 295 289 288 292 292 295 311 342 356 352 326 230 91 66 346 26 107 111 155 168 165 170 173 170 170 164 166 166 162 186 192 149 161 150 110 187 220 148 202 145 182 227 254 258 277 297 294 290 284 281 284 232 206 79 56 16 255 183 54 78 144 131 135 143 148 157 164 163 162 165 167
322 320 318 317 318 319 324 333 338 337 334 330 330 326 319 314 303 297 289 282 284 281 292 316 341 353 1 18 21 86 88 16 63 105 119 144 165 171 181 190 185 183 172 157 185 195 209 171 145 125 135 127 189 197 190 210 100 196 252 271 270 281 285 276 280 293 311 58 253 205 84 46 287 259 325 28 174 159 135 145 155 153 156 164 166 166 172 174
323 320 318 319 319 323 335 346 346 340 338 336 333 328 322 314 303 297 285 274 263 256 284 324 335 345 6 111 212 163 111 13 71 107 130 144 161 174 183 188 187 189 175 153 204 210 208 164 136 49 99 169 243 173 181 204 243 240 288 288 298 331 83 357 359 305 8 70 255 196 119 192 219 284 345 349 181 156 138 148 158 157 153 158 165 168 173 173
322 319 320 323 326 334 342 346 342 336 335 335 332 326 319 313 304 290 272 261 242 249 288 331 339 347 3 239 199 178 339 355 72 125 149 160 163 167 175 185 189 198 190 164 173 213 212 202 143 16 161 190 271 331 159 167 256 253 54 311 313 340 38 15 360 295 49 81 257 207 207 220 215 327 358 336 167 148 138 150 162 161 155 158 166 170 175 178
320 320 322 326 333 340 341 343 340 330 327 331 332 325 316 311 303 283 266 254 234 252 296 348 357 7 348 261 187 30 343 346 342 183 182 179 175 178 188 199 200 206 213 211 323 305 221 208 176 103 194 215 277 313 291 340 9 301 321 70 343 317 11 12 353 338 52 74 305 225 267 276 296 2 25 345 188 159 148 160 167 165 167 170 174 180 184 189
320 319 322 326 334 338 339 341 336 326 326 328 329 328 317 304 294 278 264 249 232 232 281 17 11 13 300 291 256 315 323 340 323 267 220 197 189 186 198 205 207 211 219 227 240 49 147 174 151 115 241 235 264 313 288 330 39 353 307 158 351 28 353 354 13 27 53 31 325 255 269 296 349 1 20 8 218 183 161 166 173 174 175 176 180 189 192 191
318 319 322 322 328 334 337 335 333 333 331 331 333 333 325 298 276 257 243 243 200 142 128 60 24 19 151 47 35 323 299 321 335 326 242 206 197 162 140 159 178 204 208 218 202 149 119 130 112 24 346 123 165 174 8 82 66 1 6 107 325 29 37 344 56 44 29 352 359 11 271 269 20 1 8 43 211 199 176 172 177 179 179 184 188 192 196 194
316 316 315 313 320 327 329 328 333 340 336 339 344 349 9 44 196 191 196 197 151 134 118 124 16 344 251 35 16 188 292 313 340 335 222 202 194 155 117 117 86 126 146 124 148 158 117 87 97 21 55 65 151 203 227 236 140 71 25 88 340 331 7 338 29 28 9 13 36 28 269 255 340 333 2 98 188 197 190 184 181 183 187 191 194 196 201 202
317 314 305 303 310 315 320 322 334 345 341 344 358 38 62 87 108 89 120 120 114 139 115 174 294 304 222 236 312 297 299 302 320 321 198 181 183 169 117 108 80 66 109 91 112 143 22 316 268 133 102 29 56 110 191 221 146 159 159 127 128 235 255 312 306 12 7 14 49 30 269 284 306 287 198 138 167 198 198 191 186 190 194 197 201 206 207 210
317 311 303 301 305 304 310 320 337 344 342 349 17 110 86 81 94 88 115 115 107 277 42 233 252 304 278 264 290 308 307 306 299 240 158 154 165 160 112 99 77 46 104 103 83 64 351 168 171 168 236 326 121 126 226 186 169 153 147 138 139 172 232 274 272 12 358 348 88 79 300 309 299 282 222 139 130 182 185 181 194 198 200 205 211 215 216 221
317 311 308 307 298 297 310 325 338 341 346 356 64 141 83 43 43 29 148 170 217 246 265 217 175 264 291 280 306 320 320 318 325 160 155 153 150 141 92 37 45 46 81 156 92 45 333 154 182 224 247 267 216 184 115 121 123 107 125 148 148 196 235 261 246 23 348 269 110 77 299 286 284 283 259 301 75 174 177 180 194 199 204 207 210 216 219 225
323 317 314 309 294 298 315 331 336 343 0 15 104 129 101 117 17 340 314 274 233 225 244 238 179 260 270 270 292 333 358 351 50 121 158 155 150 152 82 14 86 75 57 212 226 8 316 117 216 235 235 232 149 147 126 113 112 114 152 164 176 221 238 352 340 5 1 280 133 91 282 263 263 283 277 289 241 202 186 184 194 198 203 208 212 219 221 221
334 329 322 301 297 308 322 338 344 355 31 54 88 111 136 113 322 271 263 307 276 222 228 249 261 266 265 265 259 221 68 9 85 113 159 149 140 186 148 53 135 160 56 208 241 35 21 251 251 237 164 102 87 126 133 115 119 125 154 188 193 215 275 295 260 357 4 304 253 100 297 280 264 274 271 248 229 229 206 195 201 199 199 205 210 216 219 217
343 343 11 291 300 322 338 359 9 12 52 79 98 111 104 7 344 245 202 310 293 272 173 216 218 242 267 272 215 174 146 186 156 275 173 158 111 182 145 98 117 122 117 187 186 182 317 208 188 140 141 124 95 124 132 116 128 153 164 211 206 120 284 250 167 351 10 16 342 288 283 284 284 265 242 249 258 284 307 255 228 210 207 211 212 213 210 207
349 357 138 143 148 97 10 54 58 29 57 136 114 86 1 347 352 223 187 350 294 290 236 207 206 215 245 278 169 165 156 181 186 253 167 158 111 132 148 123 137 162 211 163 147 203 259 129 117 120 143 141 121 145 165 159 165 194 194 210 209 178 229 248 325 320 316 103 40 315 272 261 345 308 157 96 286 275 311 313 264 230 223 231 237 233 218 210
354 10 132 140 151 85 33 77 78 37 40 157 125 22 348 341 340 193 175 21 262 292 269 199 223 213 199 114 157 176 42 182 231 231 176 165 135 138 136 124 181 196 156 138 138 216 280 133 143 137 133 154 155 176 198 190 184 223 216 211 205 187 192 212 316 315 266 97 45 352 289 253 42 321 182 42 313 256 233 268 253 241 232 227 236 237 231 229
358 19 136 145 144 89 60 97 67 28 3 175 337 343 343 340 336 169 167 15 120 326 321 190 215 201 188 132 155 185 64 146 264 240 181 173 141 127 136 132 352 30 149 160 171 240 4 88 146 138 130 154 178 223 211 189 177 209 215 192 178 157 153 162 173 231 308 317 28 3 290 277 330 336 23 343 317 305 273 252 227 346 256 228 230 231 228 231
358 25 148 152 152 115 47 154 26 16 159 233 328 339 339 339 18 159 169 22 114 295 321 235 283 181 204 195 149 164 167 21 38 75 158 188 150 45 143 185 131 95 158 172 8 285 153 119 75 86 109 139 194 258 197 178 171 170 159 153 152 153 162 160 157 181 322 312 307 49 318 279 283 306 19 310 298 312 325 347 4 1 301 281 268 255 242 235
350 342 194 179 172 222 263 237 315 279 192 328 334 336 335 340 136 157 86 67 143 289 235 286 301 154 229 15 92 99 269 341 70 67 347 118 119 25 164 200 178 143 143 221 276 338 161 187 174 152 132 206 236 239 167 177 182 8 103 124 130 125 127 133 136 135 62 290 253 124 87 270 271 251 2 336 326 343 349 343 338 334 326 305 283 277 272 264
337 311 250 224 218 251 266 273 271 235 278 339 338 333 332 359 144 127 61 110 263 336 188 269 146 158 330 47 56 14 298 347 40 318 354 80 75 45 127 181 141 126 89 291 261 255 212 237 206 179 217 251 250 62 169 186 186 131 134 105 86 77 70 80 96 116 94 272 261 299 29 272 277 275 346 12 27 343 330 329 323 324 328 321 313 306 290 280
330 302 257 247 251 248 307 304 265 247 343 340 338 335 340 131 127 55 91 200 312 331 249 295 268 302 7 82 33 359 337 352 2 342 18 77 36 42 86 161 109 119 85 1 276 270 293 272 192 196 231 187 108 82 71 152 120 150 149 101 86 72 55 68 50 66 164 244 258 354 359 259 275 286 84 5 331 308 306 315 321 326 332 330 330 330 317 301
329 297 254 243 252 250 316 348 16 10 346 338 340 342 103 109 40 98 135 257 288 325 359 356 315 5 34 91 49 7 13 13 355 355 39 44 12 47 97 196 95 105 16 9 287 306 324 193 193 263 213 123 114 92 49 56 124 157 156 113 117 72 59 105 64 97 232 247 323 13 323 235 252 235 89 343 305 298 291 303 318 324 328 327 328 331 328 319
330 287 260 243 253 263 272 313 331 342 335 336 344 13 124 351 319 146 305 333 353 328 49 341 314 29 27 52 42 1 341 24 11 28 49 6 25 48 350 246 193 254 291 332 326 330 307 214 263 303 188 154 158 114 87 98 164 182 145 141 206 241 92 237 247 197 238 257 37 8 284 229 245 269 20 336 329 340 315 305 315 321 322 326 330 332 333 331
337 280 275 261 275 293 301 305 303 312 326 334 349 69 81 60 189 202 295 13 48 352 82 18 337 32 7 45 32 345 349 33 353 16 55 345 60 59 342 44 65 267 278 260 351 334 300 269 54 256 163 132 210 193 174 186 191 196 173 169 219 213 155 231 221 246 262 258 53 355 261 247 245 235 12 340 355 350 332 329 331 332 330 330 335 339 345 350
344 273 273 284 304 317 316 304 289 296 328 347 38 81 77 127 214 222 259 278 307 345 49 23 348 34 42 54 7 322 37 45 341 357 13 12 56 53 45 43 30 33 128 178 195 310 287 279 140 178 59 54 234 234 190 118 158 195 163 160 208 202 210 245 226 238 261 160 78 204 218 235 235 60 355 334 354 353 353 353 347 355 353 342 352 3 5 8
343 298 284 290 306 326 323 302 277 279 355 31 69 77 115 193 242 199 200 280 277 306 14 39 62 60 39 25 347 342 38 42 8 7 15 33 49 31 36 9 10 60 137 195 199 143 267 268 281 308 293 114 264 265 91 115 147 128 49 165 210 204 181 235 300 274 285 191 135 203 228 272 324 346 332 344 30 33 15 6 13 18 12 11 22 23 19 21
341 316 305 305 315 324 320 304 256 156 86 69 72 86 179 216 227 171 170 261 274 300 337 17 54 73 42 333 355 14 10 13 22 22 31 50 47 14 343 303 358 77 205 229 204 167 228 261 296 321 273 78 322 218 133 261 191 133 183 194 178 101 125 130 117 55 6 246 198 179 225 210 185 212 141 93 72 66 35 21 30 21 15 24 28 24 22 25
344 334 9 25 1 342 338 347 156 129 78 81 104 175 221 204 189 191 191 217 155 84 87 53 37 66 147 258 316 337 353 8 10 15 36 110 67 12 325 294 348 346 304 255 234 220 242 262 315 295 236 62 313 205 85 32 18 147 194 170 128 94 94 126 200 82 141 243 217 181 227 203 189 181 149 151 129 84 47 28 32 25 22 25 22 20 23 23
344 9 96 30 358 339 343 37 117 108 68 76 112 225 229 157 187 221 208 158 171 91 93 145 56 24 216 173 211 307 343 354 351 11 16 176 112 39 351 301 306 1 343 234 206 92 254 268 312 319 243 344 349 213 107 66 35 3 178 129 126 218 193 156 188 170 202 235 222 190 224 228 218 182 158 168 160 105 53 27 39 35 26 16 11 17 20 20
353 69 132 15 358 335 236 142 103 80 65 102 145 212 218 202 233 231 202 182 160 111 117 202 118 48 178 161 167 225 313 320 154 57 268 187 122 45 23 319 255 344 1 190 178 92 263 273 284 127 268 321 351 240 219 140 83 70 130 128 59 272 231 181 179 197 217 223 216 202 205 219 217 173 160 166 164 153 142 42 54 47 27 11 12 19 19 21
16 31 192 2 0 346 176 132 87 67 70 175 191 192 206 225 248 257 230 211 184 121 166 181 167 134 175 185 200 188 191 199 163 167 245 149 122 22 9 333 294 330 353 117 117 102 105 252 267 320 325 277 269 5 276 199 128 135 171 183 181 123 337 225 168 86 221 204 178 203 224 204 154 160 160 153 150 167 174 155 87 64 43 33 33 29 27 27
18 19 202 353 356 346 158 94 53 65 105 155 188 218 243 57 250 314 318 308 94 295 133 148 156 146 150 175 221 185 151 140 169 174 199 168 139 210 50 18 276 303 328 86 74 37 101 191 248 300 304 276 312 22 331 282 273 219 204 218 193 155 187 220 210 175 211 227 177 190 227 191 120 160 159 134 144 188 179 172 140 85 58 43 46 39 35 30
43 9 263 352 353 347 147 71 39 92 129 171 143 225 282 23 92 325 327 359 47 54 51 95 135 144 157 164 177 171 159 144 182 216 208 143 69 97 343 331 250 256 304 56 33 346 134 149 234 270 281 289 333 342 299 269 269 243 236 221 172 156 203 233 234 203 165 199 105 142 242 193 121 149 161 138 175 205 162 159 146 125 92 32 45 46 44 40
77 286 307 355 353 185 137 29 230 129 353 253 327 248 247 357 128 326 343 4 22 38 33 54 145 169 189 187 152 171 187 194 175 174 344 127 112 161 312 322 275 205 94 57 133 128 160 183 261 270 285 307 325 344 210 182 161 167 48 64 172 176 107 255 271 173 190 188 146 198 239 183 133 123 131 144 154 157 164 162 152 150 150 73 40 35 36 38
16 262 283 359 3 130 161 284 210 171 333 318 5 16 332 10 51 24 11 6 5 44 76 54 128 117 86 87 105 140 178 212 171 93 73 138 136 154 323 329 329 105 66 296 184 211 246 232 238 273 291 282 237 202 204 193 179 236 346 71 199 93 96 104 98 125 231 214 175 233 241 169 129 118 99 100 131 152 169 181 178 163 146 113 56 34 23 23
346 253 246 356 17 56 136 226 156 144 65 44 40 22 357 14 40 14 24 47 9 37 118 71 123 92 72 81 88 85 60 22 131 117 137 137 317 243 339 342 357 47 38 30 86 229 248 197 206 250 261 252 245 249 254 248 246 274 226 194 175 122 138 175 147 177 225 200 171 226 245 87 113 157 146 113 159 181 180 197 229 212 122 91 61 40 17 19
6 36 300 336 18 45 81 35 50 96 120 100 71 36 16 10 355 347 33 76 22 27 63 34 356 64 64 81 111 99 50 37 53 119 136 145 255 280 333 345 6 2 12 44 52 120 171 208 224 237 251 256 261 266 328 355 277 263 256 232 186 147 186 167 163 213 206 184 198 205 225 248 194 194 194 176 188 200 189 189 204 197 171 170 150 317 335 21
67 60 359 330 353 21 52 38 27 22 24 101 80 29 1 333 328 348 42 61 21 32 60 42 27 35 157 135 133 145 74 42 45 104 124 150 255 284 322 334 10 347 355 26 20 47 121 256 215 212 248 256 268 268 167 199 261 260 264 250 214 193 188 175 210 208 133 202 240 193 183 224 209 203 215 210 203 210 206 201 199 188 179 177 189 259 323 51
46 131 3 300 316 9 16 358 10 22 22 34 91 45 14 3 3 4 14 14 12 17 33 62 39 33 42 162 148 146 137 83 33 356 164 121 313 312 352 62 21 344 354 21 1 38 156 255 200 191 248 234 222 249 221 216 250 245 246 249 234 215 200 202 221 185 160 227 251 176 182 212 207 208 224 219 205 204 202 198 192 187 196 188 189 200 148 62
43 81 328 333 56 99 292 320 337 50 35 25 34 45 42 32 30 18 331 349 7 11 16 110 33 28 36 31 124 120 102 175 95 316 206 165 16 335 347 68 133 341 13 39 14 59 208 259 181 188 258 251 240 246 209 211 251 248 237 238 233 230 223 224 234 199 197 240 263 160 206 224 208 209 230 231 203 194 180 169 187 213 206 195 204 206 169 60
41 24 330 352 41 35 325 340 7 83 28 13 26 46 60 48 29 20 8 13 359 352 8 56 40 31 53 47 70 102 54 325 341 4 178 177 43 223 234 226 175 344 15 40 44 92 235 269 112 158 265 265 262 267 241 226 248 258 255 246 232 234 235 238 242 211 221 257 256 202 229 242 231 230 249 3 91 155 165 183 204 211 204 205 219 218 183 48
15 281 325 358 358 358 349 357 29 50 26 19 16 18 42 41 11 354 45 39 32 23 359 317 331 21 76 64 65 72 16 299 289 300 245 205 332 240 240 317 199 299 350 48 121 76 212 243 84 205 268 260 245 257 261 261 267 262 255 247 239 231 219 222 224 196 209 237 234 221 234 247 237 226 226 184 177 191 195 195 197 202 217 224 227 221 125 53
360 313 10 352 267 11 2 346 18 37 81 30 358 352 38 34 356 318 133 72 54 51 7 292 264 75 68 63 47 349 317 279 264 275 268 254 293 272 246 217 210 259 298 103 285 18 181 235 221 216 267 268 234 252 281 306 289 266 236 224 243 239 229 229 225 209 213 223 229 233 245 285 305 209 215 209 195 195 196 178 176 202 215 230 238 248 281 6